Skip Page Navigation
NASA JPL Caltech
NASA Logo - Jet Propulsion Laboratory + View the NASA Portal
+ Center for Near-Earth Object Studies
JPL Home Earth Solar System Stars & Galaxies Technology
JPL Solar System Dynamics
BODIES ORBITS EPHEMERIDES TOOLS PHYSICAL DATA DISCOVERY FAQ SITE MAP
JPL Small-Body Database Browser
Search: [ help ]  
216154 (2006 SS318)
Classification: Main-belt Asteroid          SPK-ID: 2216154
Ephemeris | Orbit Diagram | Orbital Elements | Mission Design | Physical Parameters | Discovery Circumstances ]

[ show orbit diagram ]
Orbital Elements at Epoch 2459200.5 (2020-Dec-17.0) TDB
Reference: JPL 17 (heliocentric ecliptic J2000)
 Element Value Uncertainty (1-sigma)   Units 
e .08482286332023418 4.4664e-08  
a 2.647682945752797 2.2886e-08 au
q 2.423098897129892 1.145e-07 au
i 15.00781613072596 4.9615e-06 deg
node 32.18166842474464 2.0375e-05 deg
peri 240.4026569264473 5.6512e-05 deg
M 203.2175497225784 5.9088e-05 deg
tp 2459885.818318686308
(2022-Nov-02.31831869)
0.00026464 TDB
period 1573.611040588517
4.31
2.0403e-05
5.586e-08
d
yr
n .22877317883164 2.9662e-09 deg/d
Q 2.872266994375701 2.4828e-08 au
  Orbit Determination Parameters
   # obs. used (total)      275  
   data-arc span      9092 days (24.89 yr)  
   first obs. used      1996-03-27  
   last obs. used      2021-02-16  
   planetary ephem.      DE441  
   SB-pert. ephem.      SB441-N16  
   condition code      0  
   norm. resid. RMS      .56655  
   source      ORB  
   producer      Otto Matic  
   solution date      2021-Apr-13 23:53:39  

Additional Information
 Earth MOID = 1.44271 au 
 Jupiter MOID = 2.2158 au 
 T_jup = 3.338 
[ show covariance matrix ]

Ephemeris | Orbit Diagram | Orbital Elements | Mission Design | Physical Parameters | Discovery Circumstances ]

Physical Parameter Table
Parameter Symbol Value Units Sigma Reference Notes
absolute magnitude H 16.17   n/a MPCxxxxx  

216154 (2006 SS318)          Discovered 2006-Sep-27 by Spacewatch at Kitt Peak
Reference: 20090607/Numbers.arcLast Updated: 2009-06-08

Alternate Designations
 2006 SS318 = 1996 GB14 
Ephemeris | Orbit Diagram | Orbital Elements | Mission Design | Physical Parameters | Discovery Circumstances ]
ABOUT SSD CREDITS/AWARDS PRIVACY/COPYRIGHT GLOSSARY LINKS
FirstGov 2021-Jun-15 14:35 UT
(server date/time)  
NASA Home Page
Site Manager:   Ryan S. Park
Webmaster  Alan B. Chamberlin